Temp
-7 -7 -7 -7 -7 -8 -8 -7 -7 -6 -6 -6 -7 -7 -6 -6 -6 -6 -7 -7 -6 -6 -6 -5 -5 -5 -5 -5 -6 -5 -5 -5 -5 -5 -5 -6 -6 -5 -5 -6 -5 -5 -6 -5 -5 -5 -5 -5 -5
-7 -6 -7 -8 -8 -9 -8 -8 -7 -5 -4 -8 -8 -7 -7 -7 -7 -6 -6 -6 -6 -6 -6 -5 -6 -6 -6 -6 -7 -7 -6 -6 -6 -6 -6 -6 -6 -6 -6 -6 -6 -6 -6 -6 -6 -6 -6 -6 -6
-7 -6 -7 -8 -9 -8 -8 -8 -7 -7 -7 -8 -7 -6 -7 -7 -7 -7 -7 -7 -7 -7 -6 -6 -6 -6 -7 -7 -7 -7 -7 -7 -7 -7 -7 -7 -7 -7 -7 -7 -7 -7 -7 -7 -7 -7 -7 -6 -6
-7 -7 -8 -9 -9 -8 -8 -9 -8 -7 -7 -7 -8 -8 -8 -7 -7 -8 -8 -7 -7 -7 -7 -7 -7 -7 -7 -7 -7 -7 -7 -7 -7 -7 -7 -7 -7 -7 -7 -7 -7 -7 -7 -7 -7 -7 -7 -7 -7
-7 -8 -8 -9 -9 -9 -8 -7 -8 -8 -7 -8 -9 -8 -8 -8 -8 -8 -8 -8 -8 -8 -8 -8 -8 -7 -7 -8 -8 -8 -8 -8 -8 -8 -8 -8 -7 -7 -7 -7 -7 -7 -7 -7 -7 -7 -7 -6 -6
-7 -8 -8 -9 -9 -8 -8 -8 -9 -8 -9 -7 -8 -8 -8 -9 -9 -8 -9 -8 -9 -9 -8 -8 -8 -8 -8 -8 -8 -8 -8 -8 -8 -8 -7 -7 -7 -7 -8 -8 -8 -8 -7 -7 -7 -7 -7 -7 -7
-8 -8 -9 -8 -10 -9 -9 -9 -9 -9 -9 -9 -8 -8 -8 -9 -9 -9 -8 -9 -10 -9 -8 -8 -8 -8 -8 -8 -8 -8 -8 -8 -8 -8 -8 -8 -8 -8 -8 -8 -8 -8 -7 -7 -7 -7 -7 -7 -7
-8 -9 -8 -10 -10 -9 -8 -9 -9 -10 -9 -8 -9 -8 -9 -9 -9 -8 -8 -8 -9 -8 -8 -8 -8 -8 -8 -8 -8 -8 -8 -8 -8 -8 -8 -8 -8 -8 -8 -8 -8 -8 -8 -7 -7 -7 -7 -7 -7
-7 -9 -8 -11 -10 -10 -9 -9 -10 -10 -9 -8 -9 -8 -9 -10 -10 -9 -8 -8 -9 -9 -9 -9 -9 -9 -9 -8 -8 -8 -8 -8 -8 -8 -8 -8 -8 -8 -8 -8 -8 -8 -8 -7 -8 -8 -8 -7 -7
-8 -8 -9 -10 -11 -9 -10 -10 -11 -10 -9 -9 -8 -10 -10 -11 -11 -10 -10 -9 -9 -9 -9 -8 -8 -9 -9 -9 -9 -9 -9 -9 -9 -9 -9 -8 -8 -8 -8 -8 -8 -8 -8 -8 -8 -8 -8 -7 -7
-8 -8 -9 -11 -10 -10 -11 -11 -11 -10 -9 -8 -9 -9 -10 -11 -10 -10 -9 -9 -9 -9 -9 -9 -9 -9 -9 -9 -9 -9 -9 -8 -8 -9 -9 -9 -9 -9 -8 -8 -8 -8 -8 -8 -7 -7 -7 -7 -7
-9 -9 -10 -11 -9 -10 -11 -11 -10 -10 -10 -10 -9 -9 -9 -10 -10 -10 -9 -9 -9 -10 -9 -9 -9 -9 -9 -9 -9 -9 -9 -9 -9 -9 -9 -9 -9 -9 -9 -9 -8 -8 -8 -8 -8 -8 -7 -7 -7
-11 -10 -10 -10 -9 -10 -10 -11 -11 -11 -11 -10 -10 -10 -10 -10 -9 -9 -10 -9 -9 -10 -11 -10 -10 -10 -10 -10 -10 -10 -9 -9 -9 -9 -9 -9 -10 -9 -9 -9 -9 -9 -8 -8 -8 -8 -8 -8 -8
-11 -10 -10 -8 -9 -10 -9 -10 -11 -10 -10 -10 -11 -11 -11 -10 -10 -9 -9 -9 -9 -10 -10 -10 -10 -10 -10 -10 -10 -10 -10 -10 -10 -9 -9 -9 -8 -8 -8 -8 -8 -9 -9 -9 -9 -8 -8 -8 -8
-9 -9 -9 -8 -9 -9 -10 -10 -10 -10 -10 -11 -11 -11 -12 -11 -10 -10 -10 -9 -10 -10 -10 -10 -10 -10 -10 -10 -10 -10 -10 -10 -10 -10 -9 -9 -9 -9 -9 -9 -9 -9 -9 -8 -8 -9 -9 -9 -9
-8 -9 -9 -10 -9 -9 -9 -10 -11 -10 -9 -10 -11 -11 -11 -11 -10 -9 -9 -10 -10 -11 -11 -11 -11 -10 -11 -11 -10 -10 -10 -10 -10 -10 -10 -9 -9 -9 -9 -9 -9 -8 -8 -9 -9 -9 -9 -9 -9
-9 -10 -10 -11 -11 -11 -10 -11 -10 -10 -10 -10 -11 -11 -11 -11 -10 -9 -10 -10 -10 -11 -11 -11 -11 -11 -11 -11 -11 -10 -10 -10 -10 -10 -10 -10 -10 -10 -10 -9 -9 -9 -9 -10 -10 -10 -9 -9 -9
-10 -11 -11 -11 -11 -11 -11 -11 -11 -11 -11 -11 -11 -12 -12 -11 -10 -10 -10 -10 -10 -11 -11 -11 -11 -11 -11 -11 -11 -11 -11 -11 -11 -11 -11 -11 -11 -11 -11 -11 -11 -11 -11 -11 -11 -11 -10 -10 -10
-11 -11 -11 -11 -11 -11 -11 -12 -11 -11 -11 -11 -11 -12 -12 -12 -11 -10 -10 -10 -11 -11 -11 -12 -12 -11 -11 -11 -11 -11 -12 -12 -12 -12 -12 -12 -12 -12 -12 -12 -12 -12 -12 -12 -12 -12 -11 -12 -12
-11 -11 -11 -11 -11 -11 -11 -11 -11 -11 -11 -11 -11 -12 -13 -13 -12 -11 -11 -11 -11 -11 -11 -12 -12 -11 -11 -11 -12 -12 -12 -12 -12 -12 -12 -12 -12 -13 -12 -13 -13 -13 -13 -13 -13 -13 -13 -13 -14
-11 -11 -11 -11 -12 -12 -12 -12 -12 -12 -12 -12 -12 -13 -13 -13 -12 -12 -12 -12 -12 -12 -11 -12 -12 -11 -12 -12 -12 -12 -12 -13 -13 -13 -13 -13 -13 -13 -14 -14 -14 -14 -14 -14 -15 -15 -15 -15 -15
-12 -12 -12 -12 -12 -12 -12 -11 -11 -12 -12 -13 -13 -13 -13 -13 -13 -13 -12 -13 -12 -12 -11 -11 -11 -11 -12 -12 -12 -13 -13 -13 -14 -13 -13 -13 -14 -14 -15 -15 -16 -16 -15 -15 -15 -16 -16 -16 -16
-11 -11 -11 -11 -12 -11 -11 -12 -12 -12 -12 -13 -12 -13 -13 -12 -12 -13 -13 -13 -12 -12 -12 -11 -12 -11 -12 -12 -12 -13 -13 -14 -14 -14 -14 -15 -15 -16 -16 -16 -16 -16 -16 -16 -16 -16 -16 -16 -16
-12 -12 -12 -12 -12 -12 -12 -12 -11 -13 -13 -13 -12 -12 -13 -13 -13 -12 -12 -13 -13 -13 -12 -12 -11 -12 -11 -12 -12 -12 -12 -13 -14 -14 -15 -16 -16 -16 -17 -17 -17 -17 -17 -17 -16 -16 -16 -16 -16
-12 -12 -11 -12 -13 -13 -12 -12 -13 -12 -12 -12 -12 -11 -13 -12 -13 -13 -13 -13 -13 -14 -14 -14 -13 -13 -13 -12 -13 -13 -13 -14 -15 -15 -16 -16 -16 -17 -17 -17 -17 -17 -17 -17 -16 -16 -16 -16 -16
-12 -13 -13 -12 -12 -13 -13 -13 -14 -13 -13 -13 -12 -13 -13 -13 -13 -14 -14 -14 -14 -14 -13 -13 -13 -14 -14 -14 -14 -14 -15 -15 -15 -15 -16 -16 -16 -17 -17 -17 -17 -17 -17 -17 -17 -16 -16 -17 -17
-13 -13 -14 -13 -13 -13 -13 -13 -13 -13 -13 -13 -13 -13 -14 -14 -14 -15 -14 -14 -14 -14 -14 -14 -15 -14 -14 -14 -13 -14 -15 -16 -16 -16 -16 -17 -16 -17 -17 -17 -17 -17 -17 -17 -17 -17 -17 -17 -18
-12 -13 -13 -14 -13 -13 -13 -14 -13 -13 -14 -13 -13 -14 -14 -14 -14 -14 -14 -14 -14 -14 -15 -15 -14 -14 -14 -14 -15 -16 -17 -17 -17 -17 -17 -17 -17 -17 -17 -17 -17 -17 -18 -18 -18 -18 -18 -18 -18
-13 -13 -13 -13 -14 -14 -14 -14 -14 -14 -14 -14 -14 -14 -14 -14 -14 -15 -15 -15 -14 -15 -14 -14 -14 -15 -15 -16 -16 -17 -18 -18 -18 -17 -17 -17 -17 -17 -17 -17 -17 -18 -18 -18 -18 -18 -18 -18 -18
-12 -13 -14 -14 -13 -14 -15 -14 -15 -14 -14 -14 -13 -14 -14 -14 -14 -14 -15 -15 -15 -15 -15 -15 -15 -16 -17 -17 -17 -17 -17 -18 -17 -17 -17 -17 -17 -17 -17 -17 -18 -18 -17 -18 -19 -19 -18 -18 -18
Height
5916 5917 5919 5920 5923 5919 5917 5910 5915 5914 5900 5893 5909 5912 5913 5915 5918 5920 5921 5921 5920 5918 5919 5920 5918 5917 5917 5917 5917 5917 5918 5919 5918 5919 5919 5919 5919 5919 5919 5919 5918 5918 5918 5918 5917 5917 5917 5917 5917
5914 5915 5917 5919 5921 5918 5916 5913 5908 5910 5907 5893 5909 5912 5912 5916 5917 5920 5917 5917 5917 5918 5919 5918 5916 5915 5915 5916 5916 5917 5917 5917 5916 5916 5916 5917 5917 5916 5916 5916 5916 5915 5915 5914 5915 5915 5915 5915 5915
5912 5913 5915 5918 5919 5916 5916 5912 5908 5911 5895 5890 5908 5911 5912 5914 5917 5919 5919 5917 5916 5916 5915 5914 5914 5915 5915 5914 5914 5915 5915 5915 5915 5915 5915 5915 5915 5914 5914 5913 5912 5912 5912 5911 5911 5911 5911 5910 5910
5910 5912 5914 5915 5913 5906 5909 5913 5914 5906 5907 5892 5904 5905 5910 5909 5911 5915 5914 5913 5913 5911 5911 5911 5911 5910 5911 5912 5912 5912 5912 5912 5911 5912 5912 5911 5911 5910 5910 5910 5908 5907 5907 5907 5905 5905 5905 5905 5905
5909 5911 5912 5913 5910 5910 5910 5907 5910 5905 5903 5896 5902 5903 5908 5908 5909 5906 5904 5903 5902 5904 5908 5908 5908 5909 5909 5908 5909 5909 5909 5909 5908 5908 5908 5906 5906 5905 5904 5904 5902 5902 5902 5901 5900 5899 5899 5899 5899
5908 5910 5911 5911 5908 5904 5906 5906 5905 5906 5906 5905 5902 5907 5911 5902 5903 5903 5904 5903 5899 5902 5906 5906 5905 5904 5905 5906 5907 5906 5905 5904 5904 5903 5902 5901 5901 5899 5899 5898 5897 5897 5895 5894 5894 5894 5893 5892 5892
5905 5908 5910 5909 5905 5906 5905 5906 5909 5908 5902 5899 5903 5911 5903 5904 5902 5902 5900 5904 5898 5905 5904 5903 5902 5901 5902 5902 5902 5902 5901 5900 5899 5898 5897 5896 5895 5894 5894 5892 5892 5891 5889 5888 5887 5887 5887 5885 5884
5903 5906 5910 5909 5906 5904 5903 5905 5904 5904 5903 5901 5905 5909 5900 5898 5898 5899 5897 5899 5898 5899 5903 5901 5898 5898 5898 5898 5897 5897 5896 5895 5895 5893 5892 5892 5890 5888 5886 5885 5885 5882 5882 5881 5879 5880 5878 5877 5878
5904 5907 5906 5908 5912 5904 5902 5898 5905 5906 5903 5900 5902 5902 5902 5900 5899 5893 5896 5898 5901 5900 5899 5897 5896 5894 5894 5894 5894 5893 5892 5890 5888 5887 5885 5885 5884 5882 5880 5879 5878 5877 5875 5873 5872 5871 5869 5869 5868
5906 5906 5905 5908 5914 5908 5898 5904 5907 5905 5899 5899 5901 5902 5900 5898 5898 5893 5893 5890 5892 5893 5894 5893 5892 5894 5893 5892 5892 5888 5886 5886 5886 5882 5879 5878 5876 5874 5872 5871 5869 5867 5866 5866 5864 5862 5861 5860 5860
5907 5905 5905 5906 5909 5914 5910 5909 5905 5902 5899 5896 5896 5902 5901 5897 5892 5890 5892 5894 5893 5888 5886 5886 5887 5888 5886 5885 5885 5884 5882 5880 5880 5877 5874 5871 5869 5867 5865 5862 5860 5858 5858 5856 5854 5853 5852 5851 5849
5906 5905 5905 5906 5905 5912 5912 5904 5901 5897 5896 5894 5893 5896 5898 5895 5889 5887 5888 5889 5891 5890 5885 5883 5884 5884 5882 5881 5880 5877 5874 5873 5870 5869 5866 5863 5860 5858 5855 5852 5850 5848 5847 5844 5842 5841 5841 5840 5838
5902 5904 5905 5902 5905 5907 5909 5903 5901 5899 5894 5894 5894 5891 5894 5890 5888 5888 5887 5887 5888 5887 5883 5880 5880 5879 5877 5875 5874 5871 5868 5864 5862 5859 5859 5857 5854 5850 5848 5845 5841 5837 5836 5833 5830 5828 5826 5825 5824
5901 5902 5900 5900 5902 5903 5905 5902 5895 5899 5899 5892 5894 5891 5889 5884 5887 5886 5886 5884 5884 5884 5881 5879 5876 5873 5871 5869 5867 5864 5861 5858 5856 5852 5850 5847 5844 5841 5839 5836 5833 5829 5826 5823 5820 5817 5815 5813 5809
5895 5896 5897 5897 5898 5898 5902 5902 5896 5896 5895 5895 5892 5891 5884 5881 5881 5881 5881 5881 5880 5878 5875 5873 5871 5868 5865 5863 5860 5858 5855 5851 5847 5843 5840 5836 5832 5829 5825 5823 5819 5816 5813 5810 5807 5805 5802 5799 5795
5893 5894 5895 5895 5893 5891 5894 5897 5893 5890 5890 5888 5887 5887 5879 5876 5876 5876 5878 5877 5876 5874 5871 5870 5866 5863 5860 5857 5854 5850 5846 5843 5838 5834 5828 5825 5819 5816 5812 5807 5805 5802 5798 5793 5789 5786 5785 5784 5782
5891 5891 5891 5890 5891 5888 5889 5889 5885 5886 5886 5885 5883 5880 5874 5870 5869 5870 5872 5872 5870 5869 5864 5861 5859 5857 5854 5850 5847 5843 5838 5833 5828 5823 5817 5811 5806 5803 5798 5793 5789 5785 5782 5776 5771 5768 5764 5763 5761
5886 5886 5888 5888 5887 5884 5886 5884 5882 5882 5881 5880 5878 5875 5868 5865 5863 5861 5864 5863 5862 5860 5858 5854 5851 5848 5845 5841 5838 5834 5828 5822 5816 5810 5804 5798 5792 5788 5783 5777 5772 5767 5762 5757 5752 5748 5745 5741 5737
5884 5884 5885 5883 5882 5882 5880 5881 5878 5877 5877 5875 5874 5872 5864 5859 5857 5854 5854 5856 5854 5852 5851 5849 5842 5838 5835 5832 5828 5823 5817 5811 5804 5797 5791 5784 5779 5774 5768 5761 5755 5748 5741 5735 5729 5726 5723 5719 5712
5880 5880 5881 5881 5880 5880 5877 5875 5877 5872 5870 5869 5868 5867 5860 5855 5851 5849 5846 5846 5845 5844 5843 5840 5836 5830 5826 5822 5817 5811 5804 5797 5792 5785 5778 5770 5764 5757 5750 5742 5735 5727 5721 5715 5707 5701 5697 5695 5690
5877 5875 5874 5877 5874 5872 5871 5869 5872 5873 5868 5862 5860 5858 5853 5851 5847 5844 5842 5840 5837 5834 5832 5830 5824 5821 5818 5812 5804 5796 5791 5786 5778 5769 5763 5757 5749 5739 5731 5722 5714 5707 5700 5695 5687 5680 5675 5675 5673
5872 5868 5868 5870 5867 5866 5865 5862 5864 5862 5861 5857 5851 5851 5848 5845 5843 5840 5837 5833 5829 5824 5819 5818 5814 5811 5805 5800 5793 5786 5782 5775 5765 5756 5749 5741 5731 5722 5711 5702 5694 5687 5680 5674 5668 5662 5658 5656 5656
5867 5863 5863 5863 5863 5861 5863 5857 5854 5854 5851 5846 5842 5841 5839 5838 5834 5834 5830 5825 5820 5815 5812 5806 5802 5796 5792 5788 5783 5778 5771 5764 5754 5743 5732 5723 5712 5702 5692 5684 5676 5669 5662 5656 5651 5648 5645 5643 5643
5860 5860 5857 5856 5856 5855 5852 5846 5846 5844 5838 5830 5829 5833 5833 5833 5831 5828 5822 5816 5811 5806 5799 5793 5787 5783 5778 5773 5766 5760 5755 5745 5736 5725 5716 5707 5696 5687 5677 5669 5662 5655 5649 5644 5640 5637 5635 5634 5632
5855 5851 5851 5850 5849 5847 5844 5838 5838 5836 5827 5828 5824 5825 5823 5823 5819 5816 5812 5806 5800 5795 5790 5784 5778 5770 5764 5756 5748 5741 5734 5726 5716 5706 5698 5689 5682 5674 5666 5659 5652 5647 5642 5637 5633 5630 5627 5626 5624
5852 5849 5847 5843 5845 5845 5840 5834 5831 5831 5831 5826 5825 5822 5819 5817 5814 5810 5806 5800 5793 5786 5781 5773 5765 5761 5754 5745 5736 5727 5719 5710 5700 5691 5683 5676 5669 5663 5656 5651 5646 5641 5636 5632 5628 5625 5622 5619 5616
5847 5846 5843 5839 5839 5839 5840 5832 5827 5827 5825 5825 5821 5821 5817 5811 5808 5803 5797 5788 5783 5778 5772 5767 5758 5749 5739 5730 5721 5712 5701 5691 5682 5675 5668 5663 5657 5653 5648 5644 5640 5636 5631 5627 5623 5619 5615 5611 5607
5840 5840 5837 5835 5833 5833 5834 5826 5821 5820 5817 5813 5813 5812 5810 5807 5801 5793 5788 5783 5779 5772 5767 5757 5745 5734 5724 5713 5702 5692 5682 5673 5667 5662 5656 5652 5649 5646 5642 5638 5634 5629 5624 5620 5616 5613 5609 5604 5600
5835 5833 5830 5829 5828 5827 5826 5825 5820 5815 5812 5810 5807 5802 5799 5796 5791 5786 5782 5776 5767 5758 5748 5739 5728 5717 5707 5696 5687 5677 5669 5662 5657 5651 5648 5644 5642 5639 5636 5633 5628 5623 5618 5614 5609 5607 5603 5598 5594
5829 5830 5827 5823 5823 5823 5819 5817 5812 5805 5805 5802 5800 5794 5791 5788 5783 5778 5771 5764 5754 5746 5737 5728 5718 5706 5694 5684 5676 5668 5660 5654 5647 5644 5641 5638 5636 5633 5630 5626 5621 5617 5611 5606 5602 5600 5598 5594 5590
Wind_Speed
8 10 11 8 7 9 7 16 11 8 2 12 2 4 7 10 9 8 5 3 9 10 18 20 17 17 18 18 16 16 17 17 17 17 19 18 18 18 18 17 17 17 16 17 17 17 16 16 17
5 6 9 8 4 8 14 23 4 6 10 14 5 3 9 10 11 9 8 8 7 8 17 17 14 16 18 19 18 18 19 20 19 18 18 18 19 19 19 19 19 19 20 20 20 21 21 21 20
6 5 10 11 4 11 12 17 20 3 12 14 0 5 7 14 14 11 12 12 13 13 13 12 12 13 17 17 18 18 20 20 19 19 19 20 20 20 20 21 21 22 22 22 22 22 23 24 24
5 8 13 12 5 12 16 16 20 24 25 5 11 9 11 18 17 15 15 16 17 18 16 17 17 16 18 20 22 22 24 23 21 21 24 24 26 27 26 26 26 25 25 25 26 27 27 27 27
7 10 12 11 9 18 22 11 11 23 25 13 19 14 10 14 16 18 21 20 24 22 19 18 20 21 21 21 24 26 27 27 27 28 28 27 28 27 27 27 27 29 29 29 30 29 29 30 31
9 15 16 8 13 29 15 3 15 23 28 35 36 31 15 12 12 15 16 16 19 25 17 20 21 22 22 23 23 23 23 26 29 28 27 28 29 29 29 29 30 31 32 33 33 32 31 31 33
12 18 19 9 18 21 17 13 15 28 32 35 39 25 26 10 9 17 18 18 24 10 21 21 22 24 23 23 22 21 22 24 26 27 28 29 30 31 32 33 34 33 33 34 35 36 34 34 35
17 19 9 11 9 31 24 15 21 28 32 35 34 18 17 19 13 15 18 19 22 21 21 19 19 20 20 20 21 23 23 24 26 27 29 28 29 30 31 32 33 34 34 34 35 35 35 36 36
9 18 13 19 20 20 23 19 19 23 32 34 24 18 18 19 20 25 25 24 20 21 21 17 15 19 21 22 22 23 24 25 26 27 27 27 27 29 30 31 33 34 36 36 37 38 38 38 38
8 20 16 12 12 17 21 11 17 26 32 31 19 12 12 17 19 25 21 21 22 21 21 21 23 20 19 19 20 23 24 23 23 26 28 29 30 32 33 34 35 36 38 38 39 42 43 43 42
20 14 10 6 12 15 12 12 21 27 31 29 30 16 10 17 24 24 18 16 20 23 24 22 22 23 25 26 26 22 24 26 25 26 29 32 34 35 37 39 40 41 42 44 45 44 44 45 46
16 11 9 9 15 14 17 16 25 32 35 30 33 25 14 22 26 27 26 27 26 23 25 25 25 26 27 27 25 27 28 30 31 33 35 39 42 43 44 46 47 47 48 50 52 52 53 53 53
9 6 10 17 6 11 26 15 19 26 33 35 27 28 25 28 28 28 30 33 30 22 24 27 27 29 29 29 30 33 35 37 39 41 42 43 44 46 47 48 50 51 50 51 53 55 57 59 59
13 16 17 15 11 17 16 32 35 39 32 32 26 30 31 36 33 33 32 33 28 24 26 28 31 33 32 34 35 37 39 41 43 46 48 50 52 52 51 50 48 48 49 50 53 55 58 59 60
15 20 18 17 14 18 18 23 30 31 31 28 29 30 34 39 38 34 29 24 24 26 29 33 35 35 35 38 39 41 43 45 48 51 53 54 54 54 53 50 51 53 55 58 59 60 61 62 64
12 12 10 11 16 21 17 11 22 28 31 32 26 29 34 30 31 30 25 24 24 27 32 34 36 37 38 41 43 45 47 49 51 54 56 57 57 55 55 57 59 61 64 66 68 68 67 65 65
10 3 15 19 14 27 27 28 30 25 25 29 32 28 32 35 33 31 30 28 29 30 33 36 37 38 40 42 45 47 50 52 55 57 59 59 59 59 60 63 65 67 68 69 71 72 74 75 74
4 9 19 22 20 24 27 32 33 28 30 33 28 29 33 37 39 38 33 30 30 31 34 36 38 41 43 45 47 50 53 56 58 59 59 60 62 63 64 67 69 71 72 74 74 75 75 77 78
10 16 17 22 23 20 26 26 33 31 41 42 32 30 33 39 41 42 40 32 32 34 33 35 42 45 47 48 51 54 56 57 57 58 60 63 64 65 68 70 73 75 77 77 77 77 77 77 79
14 19 23 23 21 24 31 35 31 38 42 40 35 27 30 33 40 43 44 40 38 37 37 39 44 48 50 53 55 55 56 58 59 61 63 65 68 71 74 76 76 77 78 76 76 75 74 71 70
19 21 27 19 19 28 31 40 33 29 24 35 35 35 34 36 39 40 41 41 42 43 43 39 46 49 51 51 53 56 58 59 60 63 66 69 72 75 76 77 77 75 74 72 70 69 68 65 61
23 26 25 22 28 31 35 40 33 37 24 31 45 42 36 37 40 41 37 45 45 46 41 47 50 51 52 52 54 56 56 58 63 69 71 74 75 75 73 72 72 70 67 65 64 60 57 53 49
23 30 29 29 35 38 34 40 42 36 30 39 40 44 34 40 38 37 45 42 46 47 50 53 53 55 52 53 53 55 53 57 64 70 73 72 72 71 70 69 64 60 55 52 49 46 43 40 38
23 21 27 27 26 33 30 36 34 34 42 45 25 23 19 32 39 37 39 42 51 53 54 57 57 58 58 57 57 60 63 66 70 71 70 66 66 65 62 57 50 47 44 40 35 34 34 35 35
22 24 19 14 16 20 23 26 27 24 28 28 5 18 27 23 43 42 47 56 59 62 62 60 59 60 63 64 68 71 71 73 73 73 66 64 60 55 48 44 40 38 34 30 29 28 27 28 30
22 25 26 26 20 19 26 31 28 24 27 31 40 41 38 34 40 47 52 57 61 64 58 59 61 61 65 68 72 74 74 72 68 64 58 55 50 43 40 35 31 29 26 25 24 25 25 28 31
22 19 22 26 23 22 19 28 33 27 28 24 31 34 38 41 42 49 55 62 61 59 58 59 63 68 70 73 76 77 73 66 61 56 51 45 37 38 33 28 28 29 28 26 24 25 28 27 27
28 23 22 25 27 25 18 30 36 37 35 42 43 38 40 43 49 55 54 54 54 55 56 61 66 70 74 77 77 71 65 59 55 50 46 37 34 30 27 28 29 30 29 27 26 26 25 24 26
25 31 24 22 16 24 29 28 33 33 37 43 44 45 46 49 50 49 53 52 54 58 62 66 71 75 75 71 64 59 54 49 46 41 36 32 27 25 26 29 31 29 30 30 29 24 22 20 23
24 24 29 29 34 30 29 31 37 45 45 46 47 47 44 45 46 50 49 53 58 61 65 69 72 68 63 56 52 45 43 43 38 32 29 24 24 25 28 31 31 31 29 33 26 22 21 21 20
Wind_Direction
196 192 184 177 189 242 280 279 263 347 323 86 139 261 307 292 308 312 314 227 313 256 254 272 261 257 254 251 255 261 267 271 268 268 269 261 259 261 262 262 262 265 269 272 272 272 272 273 271
208 193 175 155 218 287 283 320 275 221 96 121 180 247 288 282 285 303 288 305 313 250 257 257 258 258 260 259 259 261 264 265 263 260 255 255 256 259 263 267 270 271 271 272 275 278 278 277 275
226 171 161 148 310 316 289 294 280 157 291 0 33 266 261 269 272 291 286 294 287 273 273 262 258 270 263 259 259 257 256 253 257 260 263 266 269 266 265 266 269 272 272 272 274 275 274 273 274
197 163 160 169 203 255 280 310 295 283 284 26 357 337 254 265 282 291 285 269 264 267 272 270 270 268 266 260 259 258 257 256 259 271 273 273 277 278 278 278 275 271 273 276 274 272 271 272 270
208 155 157 171 282 279 272 270 274 275 270 265 334 323 295 278 284 281 272 272 259 257 261 272 275 278 276 271 264 262 263 265 269 276 283 276 283 284 283 283 281 280 276 277 280 278 277 275 274
202 167 158 201 324 332 261 237 332 299 307 299 314 316 298 267 284 281 282 277 302 261 265 268 274 281 281 276 271 273 277 273 277 284 286 285 285 285 287 284 281 283 281 280 280 280 280 280 278
183 174 192 46 319 306 302 335 341 311 317 309 302 321 291 267 287 276 276 280 310 333 268 278 285 281 283 285 285 284 281 281 281 285 289 290 290 289 291 288 288 288 285 284 284 284 285 282 280
176 178 121 52 324 335 308 294 331 318 310 295 296 298 294 317 299 282 285 290 309 306 293 297 295 293 289 290 291 290 291 291 289 289 290 289 288 288 287 290 292 292 292 290 287 287 285 283 283
179 166 106 43 354 307 295 331 315 301 312 292 293 317 289 293 297 290 280 294 287 300 297 293 300 306 303 298 293 293 292 295 297 296 294 293 292 292 291 290 289 289 287 287 288 288 285 284 282
189 158 106 58 346 305 327 306 317 310 297 293 295 353 315 301 294 288 296 304 310 301 292 283 285 287 291 291 292 295 296 293 293 294 293 293 293 293 294 294 293 291 289 287 285 283 285 284 283
172 167 145 63 249 253 268 320 292 282 283 289 301 316 296 301 285 287 290 296 305 305 298 291 291 297 297 297 295 294 292 293 294 299 300 300 300 298 294 294 294 292 290 289 286 285 282 282 282
168 205 191 270 251 213 227 300 290 291 287 287 294 300 292 296 287 295 303 302 304 298 291 293 298 301 302 301 299 298 300 301 303 300 302 302 301 302 303 300 297 295 294 293 292 289 286 285 284
289 276 235 259 237 259 205 244 262 270 278 278 292 296 292 288 285 290 297 298 301 294 291 293 300 304 305 304 304 303 303 304 303 301 299 298 298 297 294 292 294 295 295 295 294 293 291 289 287
233 247 248 273 253 241 239 221 242 253 269 277 284 289 290 286 287 289 291 292 296 286 283 292 300 302 301 300 300 300 300 301 301 300 298 296 295 292 290 289 288 289 290 291 292 292 292 291 289
232 242 260 283 284 257 256 249 260 268 268 269 276 281 282 285 288 290 290 293 292 287 290 293 294 294 294 294 295 297 298 299 300 300 299 297 295 292 289 288 289 290 291 291 290 289 288 287 287
270 279 304 307 302 294 288 261 282 283 285 284 285 287 286 284 284 290 296 294 287 283 283 284 287 288 289 292 295 296 297 298 298 297 297 296 294 292 290 290 290 291 291 292 292 290 289 287 284
280 305 345 338 315 293 292 288 286 294 302 292 283 287 291 290 292 293 296 293 285 281 283 285 286 288 290 292 294 295 297 297 297 297 297 297 296 294 293 293 294 294 294 293 292 290 290 289 287
225 319 307 301 272 280 260 274 290 295 302 293 290 288 285 291 295 296 297 295 289 285 285 288 292 291 292 293 295 297 297 298 298 297 297 296 296 296 297 297 296 295 294 292 290 289 289 289 286
211 248 250 260 280 290 288 283 281 283 292 295 293 288 286 289 293 295 299 297 291 289 291 294 292 292 293 297 299 299 298 298 296 296 296 295 296 297 296 296 295 295 293 292 290 290 288 284 281
277 256 242 248 271 276 270 277 280 286 292 291 287 282 278 289 296 298 300 301 298 295 294 294 292 292 296 300 300 299 296 295 298 298 298 298 299 299 298 296 294 292 291 291 289 286 284 283 281
270 274 249 245 270 274 268 264 271 273 288 284 279 286 276 281 290 296 301 302 300 299 297 288 289 296 299 300 298 296 297 302 300 298 298 300 299 297 297 294 293 293 292 290 287 284 283 282 281
261 260 251 229 233 248 256 277 275 283 264 269 266 265 274 282 287 291 301 304 298 295 290 292 298 297 297 297 298 297 299 301 299 299 301 300 299 298 297 296 295 296 294 290 288 285 284 283 279
266 264 281 265 246 259 270 273 273 273 263 264 250 261 258 268 277 290 295 297 296 296 296 298 299 299 299 297 295 297 299 295 298 300 301 302 301 300 299 299 299 298 296 294 289 286 286 285 281
301 287 271 274 264 264 271 266 278 270 267 257 260 273 271 274 281 295 300 300 306 307 304 305 301 302 302 302 302 302 302 304 305 303 303 303 302 304 304 303 303 303 304 301 294 290 288 285 282
304 310 302 278 241 265 276 313 320 313 315 260 154 230 296 281 300 302 304 308 308 306 305 301 302 306 310 310 308 306 307 307 305 303 306 305 308 310 311 309 309 306 305 304 300 296 292 292 290
302 299 301 290 269 281 286 298 301 291 282 286 294 282 288 288 298 303 300 300 299 298 301 306 308 310 308 304 303 305 302 301 300 300 302 304 308 311 311 311 311 310 311 311 307 302 296 293 293
297 295 286 285 285 282 282 282 284 301 287 282 277 294 292 298 296 297 299 296 298 303 306 309 306 304 303 303 303 302 304 304 302 306 306 307 311 312 311 309 308 308 309 309 303 300 305 304 303
287 296 269 269 283 287 268 266 273 283 289 297 297 296 293 293 296 297 297 298 300 301 302 301 303 303 304 305 307 308 307 305 305 307 303 308 311 308 307 309 309 308 307 307 302 304 310 312 312
287 284 268 275 272 283 285 274 273 276 284 284 284 289 293 292 291 293 299 302 303 305 306 307 308 309 309 309 310 309 308 305 305 302 303 307 305 305 303 306 307 306 307 305 299 300 307 320 315
286 288 288 291 285 285 287 287 281 279 281 279 280 284 287 291 297 305 306 306 304 306 307 307 308 311 312 313 314 314 310 308 307 304 302 303 303 303 301 306 308 311 309 308 295 292 294 305 321